Location: *
(18.5200°S, 46.4500°E)
Time: 00:08:54
(UTC+00:00)

Cosmos-2242 - Pass Details

Date: 19 July 2019
Orbit: 591 x 618 km, 82.5° (Epoch: 21 August)

Event Time Altitude Azimuth Distance (km) Brightness Sun altitude
Rises 15:14:57 0° 26° (NNE) 2,826 6.4 -9.7°
Reaches altitude 10° 15:17:37 10° 43° (NE) 1,937 5.4 -10.3°
Maximum altitude 15:20:45 20° 90° (E) 1,413 4.3 -11.0°
Enters shadow 15:22:43 15° 124° (ESE) 1,653 4.6 -11.4°
